Regional Weather Roundup
Issued by NWS

Home | Current Version | Previous Version | Text Only | Print | Product List | Glossary Off
Versions: 1 2 3 4 5 6 7 8 9 10 11 12 13 14 15 16 17 18 19 20 21 22 23 24 25 26 27 28 29 30 31 32 33 34 35 36 37 38 39 40 41 42 43 44 45 46 47 48 49 50

000
ASUS43 KMKX 192000
RWRWI

WISCONSIN REGIONAL WEATHER ROUNDUP
NATIONAL WEATHER SERVICE MILWAUKEE/SULLIVAN WI
300 PM CDT SUN APR 19 2015

NOTE: "FAIR" INDICATES FEW OR NO CLOUDS BELOW 12,000 FEET WITH NO
SIGNIFICANT WEATHER AND/OR OBSTRUCTIONS TO VISIBILITY.

WIZ001-002-006>008-014>016-023>028-192100-
NORTHWEST WISCONSIN

CITY           SKY/WX    TMP DP  RH WIND       PRES   REMARKS
SUPERIOR ARPT  CLOUDY    37  36  98 NE10      29.64F WCI  29
ASHLAND        CLOUDY    51  42  71 NE6       29.62F
HAYWARD        CLOUDY    55  41  59 S9        29.59F
SIREN          CLOUDY    55  47  73 S6        29.60F
CUMBERLAND     CLOUDY    52  46  82 S5        29.61F
RICE LAKE      CLOUDY    58  43  56 SE10      29.63F
CHETEK         CLOUDY    56  43  62 SE12G20   29.62F
LADYSMITH      CLOUDY    51  44  77 SE3       29.66F
EAU CLAIRE     NOT AVBL
MENOMONIE      PTSUNNY   62  46  56 E12       29.61F
NEW RICHMOND   CLOUDY    58  52  81 SW3       29.60F
OSCEOLA        CLOUDY    58  53  84 S9        29.62F
$$

WIZ003>005-009-010-017-018-192100-
NORTH CENTRAL WISCONSIN

CITY           SKY/WX    TMP DP  RH WIND       PRES   REMARKS
MANITOWISH WTR CLOUDY    54  38  53 S8        29.65F
ARBOR VITAE    CLOUDY    57  36  45 S8        29.65F
WOODRUFF       CLOUDY    57  36  45 S8        29.65F
RHINELANDER    CLOUDY    60  35  39 SE10      29.66F
EAGLE RIVER    CLOUDY    60  32  34 SE13G20   29.65F
LAND O LAKES   CLOUDY    58  33  38 S10G16    29.66F
PHILLIPS       DRIZZLE   52  43  71 SE7       29.65F
TOMAHAWK       CLOUDY    61  36  39 CALM      29.67S
MEDFORD        CLOUDY    59  39  47 S9        29.64F
MERRILL        PTSUNNY   62  37  40 SE10      29.65F
$$

WIZ029-030-035-036-043>047-192100-
CENTRAL WISCONSIN

CITY           SKY/WX    TMP DP  RH WIND       PRES   REMARKS
WAUSAU         PTSUNNY   64  36  35 SE13      29.62F
MOSINEE        PTSUNNY   64  36  34 SE10      29.65F
MARSHFIELD     CLOUDY    66  39  37 SE9       29.61F
STEVENS POINT  CLOUDY    64  37  36 SE8G17    29.65F
WAUPACA        PTSUNNY   68  33  27 E13G18    29.67F
WAUTOMA        NOT AVBL
WISC RAPIDS    CLOUDY    71  35  26 SE9G21    29.62F
CAMP DOUGLAS   NOT AVBL
$$

WIZ011>013-019>022-031-037>040-048>050-192100-
NORTHEAST WISCONSIN

CITY           SKY/WX    TMP DP  RH WIND       PRES   REMARKS
ANTIGO         PTSUNNY   61  36  38 SE16G23   29.69F
SHAWANO        PTSUNNY   66  34  30 E10       29.70F
OCONTO         MOSUNNY   56  33  42 E9        29.72F
STURGEON BAY   PTSUNNY   57  30  35 NE8       29.74F
GREEN BAY      MOSUNNY   66  35  31 E9G23     29.69F
MANITOWOC      NOT AVBL
APPLETON       PTSUNNY   66  34  30 SE14      29.68F
CLINTONVILLE   PTSUNNY   64  32  29 E10G20    29.69F
OSHKOSH        PTSUNNY   65  37  35 E13       29.65F
$$

WIZ032>034-041-042-053>061-192100-
SOUTHWEST WISCONSIN

CITY           SKY/WX    TMP DP  RH WIND       PRES   REMARKS
LA CROSSE      LGT RAIN  55  48  77 NW5       29.61F
SPARTA         CLOUDY    64  38  38 CALM      29.62F
VIROQUA        CLOUDY    64  41  44 CALM      29.62F
BOSCOBEL       CLOUDY    76  42  29 N7        29.55F
PRAIRIE DU CHI CLOUDY    67  42  39 NW8       29.57F
PLATTEVILLE    PTSUNNY   75  44  33 SE7       29.56F
$$

WIZ056-057-062-063-064-067-068-192100-
SOUTH CENTRAL WISCONSIN

CITY           SKY/WX    TMP DP  RH WIND       PRES   REMARKS
REEDSBURG      PTSUNNY   70  42  35 SE8       29.60F
BARABOO/DELLS  PTSUNNY   71  38  30 E5        29.60F
LONE ROCK      NOT AVBL
MINERAL POINT  PTSUNNY   73  37  27 S3        29.57F
MADISON        PTSUNNY   74  41  30 E15       29.57F
MIDDLETON      MOSUNNY   75  36  24 E13       29.59F
WATERTOWN      MOSUNNY   68  39  34 SE15      29.62F
MONROE         MOSUNNY   73  43  33 E8        29.57F
JANESVILLE     SUNNY     75  37  25 E18G24    29.58F
$$

WIZ051-052-058>065-066-070>072-192100-
SOUTHEAST WISCONSIN

CITY           SKY/WX    TMP DP  RH WIND       PRES   REMARKS
MILWAUKEE      PTSUNNY   52  34  50 NE7       29.66F
WAUKESHA       PTSUNNY   63  34  34 E13G18    29.66F
MILWAUKEE/TIMM SUNNY     61  28  29 E9        29.67F
RACINE         PTSUNNY   53  35  50 N12       29.65F
BURLINGTON     MOSUNNY   64  34  32 E13G20    29.63F
KENOSHA        PTSUNNY   59  34  39 E12       29.63F
FOND DU LAC    PTSUNNY   68  35  29 SE17G24   29.64F
SHEBOYGAN      FAIR      62  32  32 SE8       29.67F
WEST BEND      FAIR      63  32  31 E15       29.67F
JUNEAU         MOSUNNY   67  37  33 E18G24    29.64F
$$

LSZ147-162-192100-
LAKE SUPERIOR

STATION/POSITION TIME  TEMP    WIND        PRES    WAVE
                       AIR SEA DIR/SP/G            HT/PER
                 (UTC) (F)     (DEG/KT/KT) (MB)    (FT/S)
DEVILS ISLAND    1900   36      50/ 15/ 17 1005.0F
PORT WING        1900   38      30/ 13/ 14 1004.1
SAXON HARBOR     1900   58     200/  8/ 13 1003.4F
$$

LMZ867-665-643>646-192100-
LAKE MICHIGAN

STATION/POSITION TIME  TEMP    WIND        PRES    WAVE
                       AIR SEA DIR/SP/G            HT/PER
                 (UTC) (F)     (DEG/KT/KT) (MB)    (FT/S)
CHAMBERS ISLAND  1900   42     350/  5/  8 1009.1F
NORTHPORT PIER   1901   41      70/ 15/ 18 1008.5F
KEWAUNEE LAKESHO 1900   44      40/ 11/ 15 1006.8F
SHEBOYGAN LAKESH 1900   46      30/  6/  7 1006.9F
PORT WASHINGTON  1940   53      70/  3/  4 1005.8F
MILWAUKEE LAKESH 1900   47      40/  8/  9   N/A
KENOSHA   LAKESH 1900   46      20/ 11/ 14 1004.7F
$$

TC  - TEMPERATURE IN CELSIUS
VSB - VISIBILITY IN STATUTE MILES
WCI - WIND CHILL INDEX
HX  - HEAT INDEX



USA.gov is the U.S. government's official web portal to all federal, state and local government web resources and services.